FW5919 Weather Reports


time (UTC)temp
C
wind
direction
speed
KPH
gust
KPH
rain 1hr
cm
rain 24hr
cm
rain mn
cm
humidity
%
barometer
mb
20260510123020 22 0.0 1.6 0.00 0.58 0.03 96 1016.7
20260510122021 21 0.0 1.6 0.00 0.58 0.03 96 1016.6
20260510121020 21 0.0 0.0 0.00 0.58 0.03 96 1016.4
20260510120020 21 0.0 0.0 0.00 0.58 0.03 96 1016.4
20260510115020 21 0.0 0.0 0.00 0.58 0.03 96 1016.3
20260510114101 21 0.0 0.0 0.00 0.58 0.03 96 1016.1
20260510113020 21 0.0 0.0 0.00 0.58 0.03 96 1016.1
20260510112020 20 0.0 0.0 0.00 0.58 0.03 96 1016.1
20260510111020 20 0.0 1.6 0.00 0.58 0.03 96 1016.0
20260510110020 20 0.0 0.0 0.00 0.58 0.03 96 1015.7
20260510105041 20 0.0 0.0 0.00 0.58 0.03 96 1015.5
20260510104021 20 0.0 0.0 0.00 0.58 0.03 96 1015.5
20260510103020 20 0.0 0.0 0.00 0.58 0.03 96 1015.4
20260510102100 20 0.0 0.0 0.00 0.58 0.03 96 1015.3
20260510101019 20 0.0 0.0 0.00 0.58 0.03 96 1015.4
20260510100023 20 0.0 0.0 0.00 0.58 0.03 96 1015.3
20260510095021 20 0.0 1.6 0.00 0.58 0.03 96 1015.2
20260510094021 20 0.0 0.0 0.00 0.58 0.03 96 1014.9
20260510093020 20 0.0 0.0 0.00 0.58 0.03 96 1014.9
20260510092039 20 0.0 0.0 0.00 0.58 0.03 96 1014.8
20260510091021 21 0.0 0.0 0.00 0.58 0.03 95 1014.7
20260510090020 21 0.0 0.0 0.00 0.58 0.03 96 1014.6
20260510085020 21 0.0 1.6 0.00 0.58 0.03 96 1014.4
20260510084019 21 0.0 0.0 0.00 0.58 0.03 96 1014.3
20260510083020 21 0.0 1.6 0.03 0.58 0.03 96 1014.2
20260510082020 21 0.0 0.0 0.03 0.58 0.03 96 1014.3
20260510081019 21 0.0 1.6 0.03 0.58 0.03 96 1014.3
20260510080020 21 0.0 0.0 0.03 0.58 0.03 95 1014.3
20260510075021 21 0.0 0.0 0.03 0.58 0.03 95 1014.2
20260510074019 21 0.0 1.6 0.03 0.58 0.03 95 1014.2
20260510073039 21 0.0 0.0 0.00 0.56 0.00 95 1014.0
20260510072020 21 0.0 0.0 0.00 0.56 0.00 96 1013.9
20260510071019 21 0.0 1.6 0.00 0.56 0.00 96 1013.6
20260510070020 21 0.0 0.0 0.00 0.56 0.00 96 1013.8
20260510065040 21 0.0 0.0 0.00 0.56 0.00 96 1013.9
20260510064020 21 0.0 0.0 0.00 0.56 0.00 96 1014.2
20260510063020 21 0.0 0.0 0.00 0.56 0.00 96 1014.1
20260510062020 21 0.0 1.6 0.00 0.56 0.00 96 1014.2
20260510061040 21 0.0 1.6 0.00 0.56 0.00 95 1014.6
20260510060020 21 0.0 0.0 0.00 0.56 0.00 95 1014.7
20260510055020 21 0.0 0.0 0.00 0.56 0.00 95 1014.9
20260510054020 21 0.0 0.0 0.00 0.56 0.00 95 1015.0
20260510053021 21 0.0 0.0 0.00 0.56 0.00 95 1015.2
20260510052040 21 0.0 0.0 0.00 0.56 0.00 95 1015.3
20260510051020 21 0.0 1.6 0.00 0.56 0.00 95 1015.5
20260510050020 21 0.0 0.0 0.00 0.56 0.00 95 1015.6
20260510045209 21 0.0 0.0 0.00 0.56 0.00 95 1015.9
20260510044020 21 0.0 0.0 0.00 0.56 0.00 95 1015.8
20260510043019 21 0.0 0.0 0.00 0.56 0.00 95 1015.8
20260510042040 21 0.0 0.0 0.00 0.56 0.00 95 1015.8
20260510041020 21 0.0 0.0 0.00 0.56 0.00 95 1015.7
20260510040020 21 0.0 0.0 0.00 0.56 0.56 95 1015.6
20260510035028 21 0.0 0.0 0.00 0.71 0.56 95 1015.7
20260510034020 21 0.0 1.6 0.00 0.74 0.56 95 1015.8
20260510033020 21 0.0 0.0 0.00 0.74 0.56 95 1015.7
20260510032019 21 0.0 0.0 0.00 0.74 0.56 95 1015.8
20260510031040 21 0.0 1.6 0.00 0.74 0.56 95 1015.8
20260510030020 21 0.0 1.6 0.00 0.74 0.56 95 1015.8
20260510025020 21 0.0 0.0 0.00 0.74 0.56 95 1015.6
20260510024019 21 0.0 1.6 0.00 0.74 0.56 95 1015.5
20260510023021 21 0.0 4.8 0.00 0.74 0.56 95 1015.4
20260510022020 21 0.0 3.2 0.00 0.74 0.56 95 1015.2
20260510021020 21 0.0 3.2 0.00 0.74 0.56 95 1015.2
20260510020020 21 225 1.6 3.2 0.00 0.74 0.56 95 1015.1
20260510015020 21 0.0 1.6 0.00 0.74 0.56 94 1014.7
20260510014020 21 0.0 1.6 0.00 0.74 0.56 94 1014.7
20260510013059 21 0.0 0.0 0.00 0.74 0.56 94 1014.5
20260510012020 22 0.0 0.0 0.00 0.74 0.56 94 1014.6
20260510011020 22 0.0 1.6 0.00 0.74 0.56 94 1014.3
20260510010022 22 0.0 0.0 0.00 0.74 0.56 94 1014.2
20260510005019 22 0.0 0.0 0.03 0.74 0.56 94 1014.3
20260510004040 22 0.0 0.0 0.03 0.74 0.56 94 1014.2
20260510003019 22 0.0 0.0 0.03 0.74 0.56 94 1014.4
20260510002020 22 0.0 3.2 0.03 0.74 0.56 94 1014.6
20260510001020 22 293 1.6 4.8 0.03 0.74 0.56 93 1014.8
20260510000019 22 293 1.6 4.8 0.03 0.74 0.56 93 1014.6
20260509235040 22 293 1.6 4.8 0.00 0.71 0.53 93 1014.7
20260509234020 22 0.0 3.2 0.00 0.71 0.53 93 1014.5
20260509233020 22 0.0 3.2 0.00 0.71 0.53 93 1014.4
20260509232019 22 0.0 3.2 0.00 0.71 0.53 93 1014.5
20260509231020 22 315 1.6 3.2 0.00 0.71 0.53 93 1014.4
20260509230020 22 315 1.6 4.8 0.03 0.71 0.53 93 1014.1
20260509225021 22 0.0 3.2 0.05 0.71 0.53 93 1014.2
20260509224020 22 270 1.6 4.8 0.05 0.71 0.53 93 1014.3
20260509223019 23 315 1.6 3.2 0.05 0.71 0.53 93 1014.3
20260509222040 23 293 1.6 8.0 0.05 0.71 0.53 92 1014.4
20260509221019 23 338 1.6 6.4 0.05 0.84 0.53 92 1014.3
20260509220020 23 270 3.2 4.8 0.03 0.86 0.51 91 1014.2
20260509215022 23 338 1.6 4.8 0.00 1.22 0.48 91 1014.2
20260509214020 23 293 4.8 9.7 0.00 1.37 0.48 90 1013.9
20260509213020 23 270 1.6 9.7 0.00 1.37 0.48 91 1013.8
20260509212019 23 0 1.6 3.2 0.00 1.37 0.48 91 1013.7
20260509211039 24 0.0 3.2 0.00 1.37 0.48 91 1013.8
20260509210019 24 293 1.6 4.8 0.00 1.37 0.48 90 1013.7
20260509205019 24 293 3.2 8.0 0.03 1.37 0.48 90 1014.0
20260509204019 23 248 3.2 8.0 0.43 1.37 0.48 91 1013.8
20260509203020 23 315 1.6 4.8 0.43 1.37 0.48 92 1013.8
20260509202019 23 0.0 3.2 0.43 1.37 0.48 92 1013.8
20260509201019 23 0.0 1.6 0.43 1.37 0.48 91 1013.8
20260509200018 23 270 3.2 14.5 0.43 1.37 0.48 90 1013.9
20260509195020 25 338 6.4 16.1 0.43 1.35 0.46 87 1013.8
20260509194020 25 315 1.6 8.0 0.05 0.94 0.05 88 1013.9
20260509193020 25 0.0 1.6 0.05 0.94 0.05 90 1013.8
20260509192022 25 225 1.6 4.8 0.05 0.94 0.05 89 1014.0
20260509191059 25 0.0 1.6 0.05 0.94 0.05 90 1013.7
20260509190020 25 0.0 1.6 0.05 0.94 0.05 89 1013.7
20260509185020 25 203 1.6 1.6 0.03 0.91 0.03 86 1013.7
20260509184019 26 0.0 1.6 0.00 0.89 0.00 84 1014.0
20260509183019 26 0.0 1.6 0.00 0.89 0.00 81 1014.2
20260509182019 27 203 1.6 4.8 0.00 0.89 0.00 77 1014.2
20260509181019 27 248 1.6 3.2 0.00 0.89 0.00 77 1014.2
20260509180039 27 270 1.6 4.8 0.00 0.89 0.00 75 1014.3
20260509175019 27 203 1.6 4.8 0.00 0.89 0.00 76 1014.2
20260509174019 27 248 3.2 8.0 0.00 0.89 0.00 75 1014.3
20260509173019 27 180 3.2 6.4 0.00 0.89 0.00 76 1014.3
20260509172019 27 180 3.2 9.7 0.00 0.89 0.00 77 1014.1
20260509171019 26 225 1.6 4.8 0.00 0.89 0.00 79 1014.0
20260509170039 26 203 1.6 6.4 0.00 0.89 0.00 79 1014.5
20260509165019 26 180 3.2 6.4 0.00 0.89 0.00 78 1014.6
20260509164022 26 0.0 3.2 0.00 0.89 0.00 79 1014.8
20260509163019 26 203 1.6 3.2 0.00 0.89 0.00 80 1014.7
20260509162020 26 0.0 3.2 0.00 0.89 0.00 84 1014.6
20260509161020 26 0.0 3.2 0.00 0.89 0.00 84 1014.8
20260509160021 26 225 1.6 4.8 0.00 0.89 0.00 81 1015.2
20260509155019 26 0.0 4.8 0.00 0.89 0.00 82 1015.0
20260509154018 25 225 1.6 6.4 0.00 0.89 0.00 82 1015.0
20260509153018 25 180 1.6 4.8 0.00 0.89 0.00 82 1014.7
20260509152021 25 0.0 4.8 0.00 0.89 0.00 83 1014.7
20260509151021 25 0.0 3.2 0.00 0.89 0.00 85 1015.0
20260509150202 25 180 1.6 4.8 0.00 0.89 0.03 82 1015.3
20260509145021 25 203 3.2 8.0 0.00 0.89 0.00 84 1015.2
20260509144019 25 180 1.6 3.2 0.00 0.89 0.00 86 1014.8
20260509143021 25 180 1.6 4.8 0.00 0.89 0.00 86 1014.9
20260509142059 24 248 1.6 6.4 0.00 0.89 0.00 87 1014.7
20260509141021 24 225 1.6 3.2 0.00 0.89 0.00 88 1014.9
20260509140021 23 225 1.6 4.8 0.00 0.89 0.00 88 1015.2
20260509135118 23 158 1.6 6.4 0.00 0.89 0.00 91 1015.1
20260509134040 23 203 1.6 6.4 0.00 0.89 0.00 94 1015.0
20260509133042 22 203 1.6 8.0 0.00 0.89 0.00 94 1014.4
20260509132042 22 180 1.6 6.4 0.00 0.89 0.00 95 1014.5
20260509131021 22 0.0 3.2 0.00 0.89 0.00 95 1014.4
20260509130020 22 180 3.2 8.0 0.00 0.89 0.00 96 1014.4
20260509125041 21 180 1.6 6.4 0.00 0.89 0.00 96 1014.4
20260509124020 21 180 1.6 4.8 0.00 0.89 0.00 96 1014.2